Regional Weather Roundup
Issued by NWS

Home | Current Version | Previous Version | Text Only | Print | Product List | Glossary On
Versions: 1 2 3 4 5 6 7 8 9 10 11 12 13 14 15 16 17 18 19 20 21 22 23 24 25 26 27 28 29 30 31 32 33 34 35 36 37 38 39 40 41 42 43 44 45 46 47 48 49 50
000
ASUS43 KMPX 252010
RWRMN
WEATHER ROUNDUP FOR MINNESOTA
NATIONAL WEATHER SERVICE TWIN CITIES/CHANHASSEN MN
300 PM CDT MON MAY 25 2015


NOTE: "FAIR" INDICATES FEW OR NO CLOUDS BELOW 12,000 FEET WITH NO
SIGNIFICANT WEATHER AND/OR OBSTRUCTIONS TO VISIBILITY. N/A MEANS
CURRENT SKY AND/OR WEATHER CONDITIONS ARE NOT AVAILABLE.

MNZ060>063-068>070-252100-
   Twin Cities Metro

CITY           SKY/WX    TMP DP  RH WIND       PRES   REMARKS
TWIN CITIES    CLOUDY    67  57  70 SW14G21   29.72R
ST PAUL        CLOUDY    67  58  72 SW13      29.72R
CRYSTAL        CLOUDY    67  58  72 SW10      29.70R
BLAINE         CLOUDY    68  61  77 SW10G17   29.71R
LAKEVILLE      CLOUDY    68  59  73 W8        29.72S
EDEN PRAIRIE   CLOUDY    65  58  78 SW10      29.71R
SOUTH ST PAUL  CLOUDY    68  58  69 SW13G21   29.72S
LAKE ELMO      CLOUDY    66  59  77 SW13G18   29.73R
$$
MNZ001>005-007-008-013>017-022>024-027-028-252100-
   Northwest Minnesota

CITY           SKY/WX    TMP DP  RH WIND       PRES   REMARKS
BEMIDJI        LGT RAIN  60  56  88 NE10      29.77S
HALLOCK        CLOUDY    75  43  31 NE9       29.74F
ROSEAU         CLOUDY    73  48  40 SE6       29.75F
WARROAD        CLOUDY    66  54  63 CALM      29.77S
THIEF RVR FALL CLOUDY    66  52  59 SW3       29.78S
CROOKSTON      CLOUDY    70  54  56 SW6       29.77F
FOSSTON        DRIZZLE   61  55  82 NE3       29.79S
DETROIT LAKES  RAIN      59  54  82 N13G21    29.76S
MOORHEAD       LGT RAIN  64  54  68 NE14      29.78R
PARK RAPIDS    LGT RAIN  60  54  80 NE18G28   29.71R
MAHNOMEN       DRIZZLE   60  55  82 E12       29.76F
$$
MNZ006-009>011-018-025>026-252100-
   North Central Minnesota

CITY           SKY/WX    TMP DP  RH WIND       PRES   REMARKS
BAUDETTE       CLOUDY    65  52  62 SW9       29.76F
FLAG ISLAND    CLOUDY    63  54  72 S8        29.75S
INTL FALLS     CLOUDY    65  51  60 SE5       29.77S
WASKISH        CLOUDY    64  55  72 CALM      29.77S
BIG FORK       LGT RAIN  59  55  88 N7        29.75S
LONGVILLE      RAIN      57  55  94 NE10G18   29.70R
GRAND RAPIDS   CLOUDY    57  54  88 N9        29.71R
CRANE LAKE     LGT RAIN  55  55 100 NE3       29.79S
COOK           LGT RAIN  57  54  88 NE8G17    29.73F
WALKER         LGT RAIN  58  55  89 N9G18     29.73S
$$
MNZ012-019>021-037-252100-
   Northeast Minnesota

CITY           SKY/WX    TMP DP  RH WIND       PRES   REMARKS
DULUTH         LGT RAIN  53  51  93 E12       29.71R VSB 3/4
ELY            LGT RAIN  57  54  88 NE12G17   29.73F
HIBBING        LGT RAIN  58  53  84 NE13G18   29.70R
EVELETH        DRIZZLE   57  54  88 NE15G25   29.70F
DULUTH HARBOR  DRIZZLE   46  45  93 NE9       29.72S
TWO HARBORS    DRIZZLE   57  52  82 E14G21    29.69R
GRAND MARAIS     N/A     45  44  97 NE12G23   29.69R
G MARAIS ARPRT RAIN      55  52  88 N13G18    29.71F
$$
MNZ029>031-032-039>041-046>048-054>057-064-252100-
   West Central Minnesota

CITY           SKY/WX    TMP DP  RH WIND       PRES   REMARKS
FERGUS FALLS   CLOUDY    61  57  88 NE14G23   29.72S
WHEATON        CLOUDY    55  54  94 N17G25    29.75R
MORRIS         CLOUDY    63  57  82 N13       29.69R
ALEXANDRIA     CLOUDY    63  58  83 N7        29.69R
ELBOW LAKE     CLOUDY    59  56  88 N21G28    29.70R
WADENA         LGT RAIN  57  55  94 N13G20    29.68S
GLENWOOD       PTSUNNY   64  57  77 W12       29.68S
APPLETON       CLOUDY    68  57  68 NW8       29.71R
BENSON         PTSUNNY   68  55  64 W7        29.69R
ORTONVILLE     CLOUDY    63  55  77 N10       29.72R
MADISON        CLOUDY    64  55  72 W9        29.72R
WILLMAR        FAIR      66  57  72 W15       29.72R
$$
MNZ033>034-036-042>043-049>051-058-059-252100-
   Central Minnesota

CITY           SKY/WX    TMP DP  RH WIND       PRES   REMARKS
ST CLOUD       CLOUDY    64  58  80 SW10      29.68S
SAUK CENTRE    CLOUDY    64  57  78 W10       29.68R
PAYNESVILLE    CLOUDY    60  57  89 S12       29.70R
AITKIN         DRIZZLE   57  52  82 E5        29.66S
PINE RIVER     HVY RAIN  57  57 100 NE8       29.72S
BRAINERD       CLOUDY    58  56  93 E7        29.68R FOG
STAPLES        DRIZZLE   57  55  94 NE7       29.68R
LONG PRAIRIE   CLOUDY    61  55  82 W5        29.68R
LITTLE FALLS   PTSUNNY   61  55  82 W5        29.67S
LITCHFIELD     PTSUNNY   66  59  77 SW10G18   29.71R
BUFFALO        CLOUDY    65  56  72 SW8       29.71S
MAPLE LAKE     CLOUDY    69  60  75 SW9       29.71R
$$
MNZ037-044-045-052-053-252100-
   East Central Minnesota

CITY           SKY/WX    TMP DP  RH WIND       PRES   REMARKS
PRINCETON      CLOUDY    66  59  77 S7        29.69S
MORA           PTSUNNY   63  55  77 SW7       29.69S
CAMBRIDGE      PTSUNNY   66  55  68 S10G21    29.68R
RUSH CITY      CLOUDY    65  58  79 SW8       29.69S
MOOSE LAKE     CLOUDY    54  52  94 NE5       29.67S FOG
HINCKLEY       CLOUDY    63  59  88 SW12      29.69R
CLOQUET        DRIZZLE   52  50  93 E6        29.70S
MCGREGOR       CLOUDY    55  54  94 E5        29.69R
$$
MNZ071>073-080-081-089-090-097-098-252100-
   Southwest Minnesota

CITY           SKY/WX    TMP DP  RH WIND       PRES   REMARKS
MONTEVIDEO     CLOUDY    66  63  88 NW10      29.72R
GRANITE FALLS  CLOUDY    66  58  74 W15       29.74R
CANBY          CLOUDY    62  57  82 W12       29.75R
MARSHALL       CLOUDY    64  54  68 NW13      29.74R
REDWOOD FALLS  CLOUDY    68  57  68 W14       29.73R
OLIVIA         CLOUDY    63  55  77 W13       29.71S
PIPESTONE      CLOUDY    64  57  77 W13       29.77R
WINDOM         MOSUNNY   72  59  64 SW13      29.75R
WORTHINGTON    CLOUDY    70  57  64 SW16G23   29.77R
JACKSON        PTSUNNY   70  61  73 SW12      29.77S
TRACY          CLOUDY    68  59  73 W13G20    29.75R
SLAYTON        CLOUDY    68  58  69 SW14      29.77R
$$
MNZ065>067-074>077-082>085-091>093-252100-
   South Central Minnesota

CITY           SKY/WX    TMP DP  RH WIND       PRES   REMARKS
MANKATO        CLOUDY    72  57  60 W17G25    29.74R
NEW ULM        CLOUDY    70  57  64 W16G22    29.74R
ST JAMES       PTSUNNY   73  61  64 SW17      29.75R
FAIRMONT       PTSUNNY   73  57  56 SW16      29.76R
GLENCOE        CLOUDY    68  61  78 SW8       29.72S
FARIBAULT      PTSUNNY   72  61  68 W13       29.74R
OWATONNA       MOSUNNY   72  61  68 SW17      29.75R
WASECA         CLOUDY    72  63  73 W16G26    29.76R
ALBERT LEA     PTSUNNY   73  63  68 SW10G23   29.75S
$$
MNZ078>079-086>088-094>096-252100-
   Southeast Minnesota

CITY           SKY/WX    TMP DP  RH WIND       PRES   REMARKS
ROCHESTER      MOSUNNY   75  63  66 SW25G31   29.77R
RED WING       PTSUNNY   73  59  60 W15G21    29.72S
STANTON        PTSUNNY   72  59  64 W14G21    29.72S
DODGE CENTER   MOSUNNY   72  63  73 W12       29.76R
WINONA         PTSUNNY   77  61  57 W12G18    29.75R
AUSTIN         MOSUNNY   73  63  68 SW18G24   29.76R
PRESTON        MOSUNNY   74  62  65 SW14G20   29.78S
$$
ABBREVIATIONS USED IN REMARKS
   TC - TEMPERATURES IN CELSIUS
  WCI - WIND CHILL INDEX
   HX - HEAT INDEX
  VSB - VISIBILITY
$$


USA.gov is the U.S. government's official web portal to all federal, state and local government web resources and services.